Weather History for KHZE - January, 2014

Change the Weather History Date:

Saturday, January 4, 2014

  Actual Average (KN60) Record (KN60)
Temperature  
Mean Temperature 3 °F -  
Max Temperature 15 °F 17 °F -4 °F (2015)
Min Temperature -9 °F 1 °F -16 °F (2015)
Degree Days  
Heating Degree Days 62    
Moisture  
Dew Point -10 °F    
Average Humidity 64    
Maximum Humidity 79    
Minimum Humidity 55    
Precipitation  
Precipitation 0.00 in - - ()
Sea Level Pressure  
Sea Level Pressure 30.15 in    
Wind  
Wind Speed 14 mph (NW)    
Max Wind Speed 24 mph    
Max Gust Speed 33 mph    
Visibility 10 miles    
Events Snow    
Averages and records for this station are not official NWS values.
T = Trace of Precipitation, MM = Missing Value Source: NWS Daily Summary

Daily Weather History Graph

Daily Weather History Graph

Search for Another Location

Airport or City:

Trip Planner

Search our weather history database for the weather conditions in past years. The results will help you decide how hot, cold, wet, or windy it might be!

Date:

Astronomy

Jan. 04, 2014 Rise Set
Actual Time 8:33 AM CST 5:09 PM CST
Civil Twilight 7:57 AM CST 5:45 PM CST
Nautical Twilight 7:19 AM CST 6:23 PM CST
Astronomical Twilight 6:41 AM CST 7:01 PM CST
Moon 10:22 AM CST 9:51 PM CST
Length of Visible Light 9h 47m
Length of Day
8h 36m
Waxing Crescent, 15% of the Moon is Illuminated
Jan 4
Waxing Crescent
Jan 7
First Quarter
Jan 15
Full
Jan 23
Last Quarter
Jan 30
New

Hourly Weather History & Observations

Time (CST) Temp. Windchill Dew Point Humidity Pressure Visibility Wind Dir Wind Speed Gust Speed Precip Events Conditions
12:15 AM 15.8 °F 1.4 °F 8.6 °F 73% 29.82 in 10.0 mi NW 13.8 mph 20.7 mph N/A   Mostly Cloudy
12:35 AM 14.0 °F -2.0 °F 6.8 °F 73% 29.84 in 10.0 mi NNW 16.1 mph 26.5 mph N/A Snow Light Snow
12:55 AM 12.2 °F -3.1 °F 5.0 °F 73% 29.86 in 10.0 mi NNW 13.8 mph 28.8 mph N/A Snow Light Snow
1:15 AM 10.4 °F -4.8 °F 5.0 °F 79% 29.86 in 10.0 mi NNW 12.7 mph 18.4 mph N/A   Scattered Clouds
1:35 AM 10.4 °F -8.6 °F 3.2 °F 73% 29.88 in 10.0 mi NW 20.7 mph 26.5 mph N/A   Mostly Cloudy
1:55 AM 8.6 °F -10.0 °F 1.4 °F 73% 29.88 in 10.0 mi NNW 18.4 mph 25.3 mph N/A   Scattered Clouds
2:15 AM 8.6 °F -12.3 °F -0.4 °F 67% 29.89 in 10.0 mi NW 24.2 mph 33.4 mph N/A   Partly Cloudy
2:35 AM 8.6 °F -11.4 °F -0.4 °F 67% 29.90 in 10.0 mi NNW 21.9 mph 32.2 mph N/A   Clear
2:55 AM 6.8 °F -14.7 °F -0.4 °F 72% 29.92 in 10.0 mi NW 24.2 mph 31.1 mph N/A Snow Light Snow
3:15 AM 6.8 °F -12.4 °F -0.4 °F 72% 29.94 in 10.0 mi NW 18.4 mph 26.5 mph N/A   Clear
3:35 AM 5.0 °F -9.1 °F -2.2 °F 72% 29.97 in 10.0 mi WNW 9.2 mph 19.6 mph N/A   Clear
3:55 AM 5.0 °F -10.0 °F -4.0 °F 66% 29.99 in 10.0 mi NW 10.4 mph 18.4 mph N/A   Mostly Cloudy
4:15 AM 3.2 °F -12.2 °F -4.0 °F 72% 30.00 in 10.0 mi NNW 10.4 mph - N/A   Mostly Cloudy
4:35 AM 1.4 °F -17.6 °F -4.0 °F 78% 30.03 in 10.0 mi NW 15.0 mph 25.3 mph N/A   Mostly Cloudy
4:55 AM 1.4 °F -13.5 °F -5.8 °F 72% 30.03 in 10.0 mi NNW 9.2 mph - N/A   Mostly Cloudy
5:15 AM 1.4 °F -16.1 °F -7.6 °F 66% 30.05 in 10.0 mi NNW 12.7 mph 20.7 mph N/A   Mostly Cloudy
5:35 AM -0.4 °F -22.3 °F -7.6 °F 72% 30.06 in 10.0 mi NW 19.6 mph 24.2 mph N/A   Mostly Cloudy
5:55 AM -0.4 °F -19.9 °F -9.4 °F 66% 30.07 in 10.0 mi NW 15.0 mph 21.9 mph N/A   Partly Cloudy
6:15 AM -0.4 °F -17.6 °F -9.4 °F 66% 30.07 in 10.0 mi NW 11.5 mph - N/A   Clear
6:35 AM -0.4 °F -17.6 °F -9.4 °F 66% 30.07 in 10.0 mi WNW 11.5 mph 18.4 mph N/A   Clear
6:55 AM -0.4 °F -20.5 °F -9.4 °F 66% 30.07 in 10.0 mi NW 16.1 mph 21.9 mph N/A   Clear
7:15 AM -0.4 °F -21.2 °F -11.2 °F 60% 30.08 in 10.0 mi NW 17.3 mph - N/A   Clear
7:35 AM -0.4 °F -21.2 °F -11.2 °F 60% 30.10 in 10.0 mi NW 17.3 mph 21.9 mph N/A   Clear
7:55 AM -2.2 °F -21.5 °F -11.2 °F 66% 30.11 in 10.0 mi NW 13.8 mph - N/A   Clear
8:15 AM -2.2 °F -20.7 °F -11.2 °F 66% 30.12 in 10.0 mi WNW 12.7 mph - N/A   Clear
8:35 AM -2.2 °F -19.9 °F -11.2 °F 66% 30.12 in 10.0 mi NW 11.5 mph - N/A   Clear
8:55 AM -2.2 °F -25.2 °F - N/A% 30.12 in 10.0 mi NW 20.7 mph 26.5 mph N/A   Clear
9:15 AM -2.2 °F -21.5 °F -13.0 °F 60% 30.15 in 10.0 mi NW 13.8 mph - N/A   Clear
9:35 AM -2.2 °F -23.5 °F -11.2 °F 66% 30.14 in 10.0 mi NW 17.3 mph 23.0 mph N/A   Clear
9:55 AM -2.2 °F -18.9 °F -13.0 °F 60% 30.16 in 10.0 mi WNW 10.4 mph - N/A   Clear
10:15 AM -2.2 °F -21.5 °F -13.0 °F 60% 30.16 in 10.0 mi NW 13.8 mph - N/A   Clear
10:35 AM -0.4 °F -20.5 °F - N/A% 30.17 in 10.0 mi NW 16.1 mph 24.2 mph N/A   Clear
10:55 AM -0.4 °F -22.3 °F -11.2 °F 60% 30.18 in 10.0 mi NW 19.6 mph 25.3 mph N/A   Clear
11:15 AM -0.4 °F -22.8 °F -11.2 °F 60% 30.18 in 10.0 mi NW 20.7 mph 24.2 mph N/A   Clear
11:35 AM -0.4 °F -22.3 °F -11.2 °F 60% 30.19 in 10.0 mi WNW 19.6 mph - N/A   Clear
11:55 AM -0.4 °F -21.7 °F -11.2 °F 60% 30.18 in 10.0 mi NW 18.4 mph 25.3 mph N/A   Clear
12:15 PM -0.4 °F -21.7 °F -11.2 °F 60% 30.17 in 10.0 mi NW 18.4 mph 24.2 mph N/A   Clear
12:35 PM -0.4 °F -23.3 °F -11.2 °F 60% 30.17 in 10.0 mi NW 21.9 mph 25.3 mph N/A   Clear
12:55 PM -0.4 °F -22.8 °F -11.2 °F 60% 30.17 in 10.0 mi NW 20.7 mph 25.3 mph N/A   Clear
1:15 PM -0.4 °F -22.3 °F -11.2 °F 60% 30.19 in 10.0 mi NW 19.6 mph 25.3 mph N/A   Partly Cloudy
1:35 PM -0.4 °F -18.4 °F -11.2 °F 60% 30.20 in 10.0 mi NW 12.7 mph - N/A   Clear
1:55 PM -0.4 °F -21.2 °F -11.2 °F 60% 30.20 in 10.0 mi NW 17.3 mph 26.5 mph N/A   Clear
2:15 PM -0.4 °F -22.3 °F -11.2 °F 60% 30.21 in 10.0 mi NW 19.6 mph 24.2 mph N/A   Clear
2:35 PM -0.4 °F -21.7 °F -11.2 °F 60% 30.21 in 10.0 mi NW 18.4 mph 28.8 mph N/A   Clear
2:55 PM -0.4 °F -21.2 °F -13.0 °F 55% 30.22 in 10.0 mi NW 17.3 mph 25.3 mph N/A   Clear
3:15 PM -0.4 °F -19.2 °F - N/A% 30.24 in 10.0 mi NW 13.8 mph 20.7 mph N/A   Clear
3:35 PM -0.4 °F -23.8 °F -13.0 °F 55% 30.24 in 10.0 mi NW 23.0 mph - N/A   Clear
3:55 PM -0.4 °F -20.5 °F -13.0 °F 55% 30.25 in 10.0 mi NW 16.1 mph - N/A   Clear
4:15 PM -0.4 °F -17.6 °F -13.0 °F 55% 30.26 in 10.0 mi NW 11.5 mph - N/A   Clear
4:35 PM -0.4 °F -18.4 °F -13.0 °F 55% 30.26 in 10.0 mi NW 12.7 mph - N/A   Clear
4:55 PM -0.4 °F -19.2 °F -13.0 °F 55% 30.26 in 10.0 mi NW 13.8 mph - N/A   Clear
5:15 PM -2.2 °F -18.9 °F -13.0 °F 60% 30.26 in 10.0 mi NW 10.4 mph 18.4 mph N/A   Clear
5:35 PM -2.2 °F -18.0 °F -13.0 °F 60% 30.27 in 10.0 mi NW 9.2 mph - N/A   Clear
5:55 PM -2.2 °F -15.6 °F -13.0 °F 60% 30.26 in 10.0 mi NW 6.9 mph - N/A   Clear
6:15 PM -4.0 °F -14.6 °F -13.0 °F 65% 30.27 in 10.0 mi NW 4.6 mph - N/A   Clear
6:35 PM -2.2 °F -14.2 °F -13.0 °F 60% 30.27 in 10.0 mi WNW 5.8 mph - N/A   Clear
6:55 PM -2.2 °F - -14.8 °F 55% 30.28 in 10.0 mi Calm Calm - N/A   Clear
7:15 PM -4.0 °F -17.8 °F -14.8 °F 60% 30.28 in 10.0 mi West 6.9 mph - N/A   Clear
7:35 PM -4.0 °F -17.8 °F -16.6 °F 55% 30.29 in 10.0 mi West 6.9 mph - N/A   Clear
7:55 PM -4.0 °F -17.8 °F -16.6 °F 55% 30.28 in 10.0 mi West 6.9 mph - N/A   Clear
8:15 PM -7.6 °F -24.6 °F -16.6 °F 65% 30.28 in 10.0 mi West 9.2 mph - N/A   Clear
8:35 PM -5.8 °F -23.4 °F -16.6 °F 60% 30.28 in 10.0 mi West 10.4 mph - N/A   Clear
8:55 PM -7.6 °F -23.4 °F -16.6 °F 65% 30.29 in 10.0 mi West 8.1 mph - N/A   Clear
9:15 PM -5.8 °F -25.2 °F -16.6 °F 60% 30.28 in 10.0 mi West 12.7 mph - N/A   Clear
9:35 PM -5.8 °F -24.4 °F -16.6 °F 60% 30.29 in 10.0 mi West 11.5 mph - N/A   Clear
9:55 PM -7.6 °F -26.6 °F -16.6 °F 65% 30.28 in 10.0 mi West 11.5 mph - N/A   Clear
10:15 PM -5.8 °F -22.4 °F -16.6 °F 60% 30.28 in 10.0 mi WNW 9.2 mph - N/A   Partly Cloudy
10:35 PM -5.8 °F -16.7 °F -16.6 °F 60% 30.29 in 10.0 mi NW 4.6 mph - N/A   Partly Cloudy
10:55 PM -7.6 °F - -16.6 °F 65% 30.29 in 10.0 mi Calm Calm - N/A   Scattered Clouds
11:15 PM -9.4 °F - -18.4 °F 65% 30.29 in 10.0 mi Calm Calm - N/A   Overcast
11:35 PM -9.4 °F -24.3 °F -16.6 °F 71% 30.28 in 10.0 mi WSW 6.9 mph - N/A   Overcast
11:55 PM -9.4 °F -20.9 °F -18.4 °F 65% 30.28 in 10.0 mi WSW 4.6 mph - N/A   Overcast